K5BV Weather Reports


Display with metric or nautical units.
time (UTC)temp
F
wind
direction
speed
MPH
gust
MPH
rain 1hr
in
rain 24hr
in
rain mn
in
humidity
%
barometer
mb
20260510193229 84 0 0.0 0.0 0.00 0.00 0.00 82 1013.9
20260510192230 84 0 0.0 0.0 0.00 0.00 0.00 81 1013.9
20260510191230 85 0 0.0 0.0 0.00 0.00 0.00 81 1013.9
20260510190230 85 0 0.0 0.0 0.00 0.00 0.00 79 1014.0
20260510185230 85 0 0.0 0.0 0.00 0.00 0.00 80 1014.1
20260510184229 85 0 0.0 0.0 0.00 0.00 0.00 80 1014.0
20260510183230 85 0 0.0 0.0 0.00 0.00 0.00 81 1013.9
20260510182230 84 0 0.0 0.0 0.00 0.00 0.00 82 1014.0
20260510181231 84 0 0.0 0.0 0.00 0.00 0.00 83 1014.1
20260510180230 83 0 0.0 0.0 0.00 0.00 0.00 83 1014.2
20260510175230 84 0 0.0 0.0 0.00 0.00 0.00 83 1014.3
20260510174230 84 0 0.0 0.0 0.00 0.00 0.00 83 1014.2
20260510173232 84 0 0.0 0.0 0.00 0.00 0.00 83 1014.2
20260510172230 84 0 0.0 0.0 0.00 0.00 0.00 84 1014.2
20260510171230 84 0 0.0 0.0 0.00 0.00 0.00 84 1014.3
20260510170240 83 0 0.0 0.0 0.00 0.00 0.00 86 1014.3
20260510165229 82 0 0.0 0.0 0.00 0.00 0.00 87 1014.2
20260510164231 82 0 0.0 0.0 0.00 0.00 0.00 87 1014.2
20260510163231 82 0 0.0 0.0 0.00 0.00 0.00 89 1014.1
20260510162230 81 0 0.0 0.0 0.00 0.00 0.00 90 1014.2
20260510161230 81 0 0.0 0.0 0.00 0.00 0.00 90 1014.1
20260510160229 81 0 0.0 0.0 0.00 0.00 0.00 89 1014.1
20260510155231 81 0 0.0 0.0 0.00 0.00 0.00 89 1014.1
20260510154230 81 0 0.0 0.0 0.00 0.00 0.00 90 1014.0
20260510153230 82 0 0.0 0.0 0.00 0.00 0.00 90 1013.9
20260510152231 81 0 0.0 0.0 0.00 0.00 0.00 90 1013.6
20260510151230 81 0 0.0 0.0 0.00 0.00 0.00 91 1013.5
20260510150230 81 0 0.0 0.0 0.00 0.00 0.00 92 1013.5
20260510145229 80 0 0.0 0.0 0.00 0.00 0.00 93 1013.3
20260510144229 80 0 0.0 0.0 0.00 0.00 0.00 94 1013.3
20260510143230 80 0 0.0 0.0 0.00 0.00 0.00 95 1013.3
20260510142230 79 0 0.0 0.0 0.00 0.00 0.00 95 1013.2
20260510141229 79 0 0.0 0.0 0.00 0.00 0.00 96 1013.1
20260510140232 78 0 0.0 0.0 0.00 0.00 0.00 96 1012.8
20260510135232 78 0 0.0 0.0 0.00 0.00 0.00 96 1012.8
20260510134231 78 0 0.0 0.0 0.00 0.00 0.00 96 1012.7
20260510133229 78 0 0.0 0.0 0.00 0.00 0.00 97 1012.6
20260510132230 77 0 0.0 0.0 0.00 0.00 0.00 97 1012.5
20260510131235 77 0 0.0 0.0 0.00 0.00 0.00 97 1012.4
20260510125231 77 0 0.0 0.0 0.00 0.01 0.00 98 1012.2
20260510124231 77 0 0.0 0.0 0.00 0.01 0.00 98 1012.2
20260510123231 77 0 0.0 0.0 0.00 0.01 0.00 98 1012.1
20260510122230 77 0 0.0 0.0 0.00 0.01 0.00 97 1012.0
20260510121230 77 0 0.0 0.0 0.00 0.03 0.00 97 1011.9
20260510120230 77 0 0.0 0.0 0.00 0.06 0.00 97 1011.8
20260510115230 77 0 0.0 0.0 0.00 0.07 0.00 97 1011.8
20260510114230 77 0 0.0 0.0 0.00 0.09 0.00 97 1011.8
20260510113230 77 0 0.0 0.0 0.00 0.11 0.00 97 1011.8
20260510112230 77 0 0.0 0.0 0.00 0.16 0.00 97 1011.8
20260510111230 77 0 0.0 0.0 0.00 0.22 0.00 97 1011.8
20260510110230 77 0 0.0 0.0 0.00 0.26 0.00 97 1011.8
20260510105231 77 0 0.0 0.0 0.00 0.30 0.00 97 1011.8
20260510104230 77 0 0.0 0.0 0.00 0.32 0.00 97 1011.8
20260510103230 77 0 0.0 0.0 0.00 0.33 0.00 97 1011.8
20260510102230 77 0 0.0 0.0 0.00 0.35 0.00 97 1011.7
20260510101230 77 0 0.0 0.0 0.00 0.35 0.00 97 1011.8
20260510100230 76 0 0.0 0.0 0.00 0.35 0.00 97 1011.8
20260510095230 77 0 0.0 0.0 0.00 0.35 0.00 97 1011.9
20260510094230 77 0 0.0 0.0 0.00 0.35 0.00 97 1011.9
20260510093230 77 0 0.0 0.0 0.00 0.35 0.00 97 1011.7
20260510092230 77 0 0.0 0.0 0.00 0.35 0.00 97 1011.6
20260510091230 76 0 0.0 0.0 0.00 0.35 0.00 97 1011.6
20260510090230 77 0 0.0 0.0 0.00 0.35 0.00 97 1011.4
20260510085231 77 0 0.0 0.0 0.00 0.35 0.00 96 1011.5
20260510084230 77 0 0.0 0.0 0.00 0.35 0.00 96 1011.6
20260510081232 77 0 0.0 0.0 0.00 0.35 0.00 96 1011.5
20260510080230 77 0 0.0 0.0 0.00 0.35 0.00 96 1011.8
20260510074230 77 0 0.0 0.0 0.00 0.35 0.00 95 1011.8
20260510073230 77 0 0.0 0.0 0.00 0.35 0.00 95 1011.7
20260510072231 77 0 0.0 0.0 0.00 0.35 0.00 94 1011.7
20260510071230 77 0 0.0 0.0 0.00 0.35 0.00 94 1011.8
20260510070230 77 0 0.0 0.0 0.00 0.35 0.00 93 1011.9
20260510065230 77 0 0.0 0.0 0.00 0.35 0.00 94 1012.0
20260510064231 77 0 0.0 0.0 0.00 0.35 0.00 95 1012.2
20260510063230 77 0 0.0 0.0 0.00 0.35 0.00 95 1011.9
20260510061230 77 0 0.0 0.0 0.00 0.35 0.00 96 1011.9
20260510060230 78 0 0.0 0.0 0.00 0.35 0.00 95 1012.1
20260510055230 78 0 0.0 0.0 0.00 0.35 0.00 95 1012.2
20260510054230 77 0 0.0 0.0 0.00 0.35 0.00 95 1012.2
20260510053230 78 0 0.0 0.0 0.00 0.35 0.00 94 1012.3
20260510052231 78 0 0.0 0.0 0.00 0.35 0.00 94 1012.4
20260510051230 78 0 0.0 0.0 0.00 0.35 0.00 93 1012.2
20260510050234 78 0 0.0 0.0 0.00 0.35 0.00 93 1012.0
20260510045230 78 0 0.0 0.0 0.00 0.35 0.35 93 1011.8
20260510044230 77 0 0.0 0.0 0.00 0.35 0.35 93 1011.3
20260510042230 78 0 0.0 0.0 0.00 0.35 0.35 92 1011.2
20260510041231 78 0 0.0 0.0 0.00 0.35 0.35 92 1011.2
20260510040229 78 0 0.0 0.0 0.00 0.35 0.35 91 1010.7
20260510035229 78 0 0.0 0.0 0.00 0.35 0.35 91 1010.9
20260510034230 78 0 0.0 0.0 0.00 0.35 0.35 90 1011.2
20260510033230 78 0 0.0 0.0 0.00 0.35 0.35 90 1011.1
20260510032230 78 0 0.0 0.0 0.00 0.35 0.35 89 1011.1
20260510031230 79 0 0.0 0.0 0.00 0.35 0.35 88 1011.1
20260510030229 79 0 0.0 0.0 0.00 0.35 0.35 88 1011.0
20260510025231 79 0 0.0 0.0 0.00 0.35 0.35 87 1011.0
20260510024231 79 0 0.0 0.0 0.00 0.35 0.35 85 1010.7
20260510023232 79 0 0.0 0.0 0.00 0.35 0.35 84 1010.7
20260510022229 79 0 0.0 0.0 0.00 0.35 0.35 83 1010.6
20260510021230 80 0 0.0 0.0 0.00 0.35 0.35 82 1010.5
20260510020231 80 0 0.0 0.0 0.00 0.35 0.35 79 1010.2
20260510014231 80 0 0.0 0.0 0.00 0.35 0.35 79 1009.9
20260510013230 80 0 0.0 0.0 0.00 0.35 0.35 78 1009.7
20260510012231 81 0 0.0 0.0 0.00 0.35 0.35 76 1009.5
20260510011232 81 0 0.0 0.0 0.00 0.35 0.35 76 1009.6
20260510005231 82 0 0.0 0.0 0.00 0.35 0.35 72 1009.6
20260510004231 84 0 0.0 0.0 0.00 0.35 0.35 67 1009.7
20260510003231 83 0 0.0 0.0 0.00 0.35 0.35 67 1009.7
20260510001231 83 0 0.0 0.0 0.00 0.35 0.35 70 1009.6
20260510000233 84 0 0.0 0.0 0.00 0.35 0.35 70 1009.6
20260509235231 84 0 0.0 0.0 0.00 0.35 0.35 71 1009.6
20260509234231 84 0 0.0 0.0 0.00 0.35 0.35 69 1009.6
20260509233231 84 0 0.0 0.0 0.00 0.35 0.35 69 1009.6
20260509232231 84 0 0.0 0.0 0.00 0.35 0.35 70 1009.6
20260509231231 84 0 0.0 0.0 0.00 0.35 0.35 69 1009.6
20260509230232 84 0 0.0 0.0 0.00 0.35 0.35 68 1009.8
20260509225231 84 0 0.0 0.0 0.00 0.35 0.35 67 1009.8
20260509224232 84 0 0.0 0.0 0.00 0.35 0.35 70 1009.7
20260509221231 85 0 0.0 0.0 0.00 0.35 0.35 71 1009.9
20260509220231 86 0 0.0 0.0 0.00 0.35 0.35 69 1009.8
20260509215231 86 0 0.0 0.0 0.00 0.35 0.35 70 1009.8
20260509213230 86 0 0.0 0.0 0.00 0.35 0.35 74 1009.8
20260509211232 85 0 0.0 0.0 0.00 0.35 0.35 74 1009.7
20260509210231 85 0 0.0 0.0 0.00 0.35 0.35 73 1009.8
20260509205231 84 0 0.0 0.0 0.00 0.35 0.35 75 1009.9
20260509204231 84 0 0.0 0.0 0.00 0.35 0.35 74 1009.8
20260509203231 83 0 0.0 0.0 0.00 0.35 0.35 76 1009.8
20260509202231 83 0 0.0 0.0 0.00 0.35 0.35 78 1009.8
20260509201231 83 0 0.0 0.0 0.00 0.35 0.35 77 1009.9
20260509200230 83 0 0.0 0.0 0.00 0.35 0.35 76 1009.9
20260509195230 84 0 0.0 0.0 0.00 0.35 0.35 76 1010.1
20260509194231 84 0 0.0 0.0 0.00 0.35 0.35 75 1010.1